This is the latest recevied weather packets stored in our database for station/object JG6YPS-13. If no packets are shown the sender has not sent any weather packets the latest 10 day(s).
| Time | Temp. | Humidity | Pressure | Rain* | Wind** | Luminosity | Snow |
|---|---|---|---|---|---|---|---|
| 1777566122 | 16.67° C | 90% | 1007.8 hPa | 0 mm | - | - | - |
| 1777565523 | 16.67° C | 89% | 1007.8 hPa | 0 mm | - | - | - |
| 1777564923 | 16.67° C | 89% | 1007.8 hPa | 0 mm | - | - | - |
| 1777564324 | 16.67° C | 89% | 1007.8 hPa | 0 mm | - | - | - |
| 1777563724 | 16.67° C | 90% | 1007.8 hPa | 0.25 mm | - | - | - |
| 1777563124 | 16.67° C | 90% | 1007.7 hPa | 0.51 mm | - | - | - |
| 1777562525 | 16.67° C | 90% | 1007.8 hPa | 1.02 mm | - | - | - |
| 1777561925 | 16.67° C | 90% | 1008 hPa | 1.27 mm | - | - | - |
| 1777561325 | 17.22° C | 90% | 1008 hPa | 1.78 mm | - | - | - |
| 1777560726 | 17.22° C | 90% | 1008 hPa | 2.03 mm | - | - | - |
| 1777560126 | 17.22° C | 90% | 1008.1 hPa | 2.03 mm | - | - | - |
| 1777559526 | 17.22° C | 90% | 1008.2 hPa | 1.78 mm | - | - | - |
| 1777558927 | 17.22° C | 90% | 1008.3 hPa | 1.27 mm | - | - | - |
| 1777558327 | 17.78° C | 90% | 1008.1 hPa | 1.27 mm | - | - | - |
| 1777557727 | 17.78° C | 90% | 1008.1 hPa | 1.02 mm | - | - | - |
| 1777557127 | 17.78° C | 89% | 1008.1 hPa | 1.27 mm | - | - | - |
| 1777556528 | 17.78° C | 90% | 1008.2 hPa | 0.76 mm | - | - | - |
| 1777555928 | 17.78° C | 89% | 1008.1 hPa | 0.76 mm | - | - | - |
| 1777555328 | 17.78° C | 90% | 1008.3 hPa | 0.76 mm | - | - | - |
| 1777554728 | 17.78° C | 89% | 1008.4 hPa | 0.51 mm | - | - | - |
| 1777554129 | 17.78° C | 89% | 1008.4 hPa | 0.76 mm | - | - | - |
| 1777553529 | 17.78° C | 89% | 1008.4 hPa | 0.51 mm | - | - | - |
| 1777552929 | 17.78° C | 89% | 1008.4 hPa | 0.76 mm | - | - | - |
| 1777552329 | 17.78° C | 89% | 1008.4 hPa | 0.76 mm | - | - | - |
| 1777551729 | 17.78° C | 89% | 1008.4 hPa | 0.51 mm | - | - | - |
* Rain latest hour (hover to see other rain measurements)
** Current wind speed in m/s (hover to see current wind gust speed)